Regional Weather Roundup
Issued by NWS

Home | Current Version | Previous Version | Text Only | Print | Product List | Glossary Off
Versions: 1 2 3 4 5 6 7 8 9 10 11 12 13 14 15 16 17 18 19 20 21 22 23 24 25 26 27 28 29 30 31 32 33 34 35 36 37 38 39 40 41 42 43 44 45 46 47 48 49 50

000
ASUS43 KDTX 221210
RWRMI
MICHIGAN HOURLY REGIONAL WEATHER ROUNDUP
NATIONAL WEATHER SERVICE DETROIT/PONTIAC MI
800 AM EDT SUN APR 22 2018

NOTE: "FAIR" INDICATES FEW OR NO CLOUDS BELOW 12,000 FEET WITH NO
SIGNIFICANT WEATHER AND/OR OBSTRUCTION TO VISIBILITY.

MIZ047>049-052>055-059>063-066>070-074>076-081>083-221300-
SOUTHEAST LOWER MICHIGAN

CITY           SKY/WX    TMP DP  RH WIND       PRES   REMARKS
ADRIAN         FAIR      38  26  62 NE5       30.41R WCI  34
6HR MIN TEMP:  31; 6HR MAX TEMP:  41;

ALMA           FAIR      34  33  99 CALM      30.43R
6HR MIN TEMP:  29; 6HR MAX TEMP:  36;

ANN ARBOR      FAIR      37  28  70 NE5       30.41S WCI  33
BAD AXE        FAIR      35  29  80 CALM      30.44R
6HR MIN TEMP:  30; 6HR MAX TEMP:  35;

CARO           FAIR      33  28  83 CALM      30.43R
DETROIT CITY   FAIR      38  29  70 E3        30.44R
6HR MIN TEMP:  32; 6HR MAX TEMP:  38;

DETROIT        PTSUNNY   40  26  57 NE3       30.43R
6HR MIN TEMP:  35; 6HR MAX TEMP:  41;

FLINT          FAIR      33  29  85 CALM      30.43R
6HR MIN TEMP:  28; 6HR MAX TEMP:  37;

GROSSE ILE     FAIR      40  30  66 NE7       30.42S
6HR MIN TEMP:  32; 6HR MAX TEMP:  40;

HILLSDALE      FAIR      41  21  45 E6        30.37R
HOWELL         FAIR      34  30  85 CALM      30.41R
6HR MIN TEMP:  30; 6HR MAX TEMP:  39;


CITY           SKY/WX    TMP DP  RH WIND       PRES   REMARKS
JACKSON        FAIR      38  28  67 NE5       30.39S WCI  34
6HR MIN TEMP:  31; 6HR MAX TEMP:  43;

LAMBERTVILLE   FAIR      42  25  51 NE3       30.40R
6HR MIN TEMP:  33; 6HR MAX TEMP:  42;

LANSING        FAIR      34  29  82 CALM      30.42R
6HR MIN TEMP:  32; 6HR MAX TEMP:  43;

LAPEER         FAIR      32  30  92 CALM      30.43S
6HR MIN TEMP:  28; 6HR MAX TEMP:  33;

MASON          FAIR      35  27  70 CALM      30.41S
6HR MIN TEMP:  32; 6HR MAX TEMP:  42;

MONROE         FAIR      40  23  50 NE6       30.40S
6HR MIN TEMP:  31; 6HR MAX TEMP:  40;

MT. CLEMENS    MOSUNNY   36  36 100 CALM      30.42R
6HR MIN TEMP:  29; 6HR MAX TEMP:  36;

PONTIAC        FAIR      35  31  85 CALM      30.42R
6HR MIN TEMP:  30; 6HR MAX TEMP:  37;

PORT HOPE        N/A     35  28  75 CALM      30.42R
6HR MIN TEMP:  30; 6HR MAX TEMP:  35;

PORT HURON     FAIR      32  28  86 CALM      30.45R
TRI CITIES     FAIR      39  31  72 CALM      30.43R
6HR MIN TEMP:  34; 6HR MAX TEMP:  44;

MIDLAND        FAIR      32  32  99 CALM      30.42R
6HR MIN TEMP:  28; 6HR MAX TEMP:  34;

TROY           FAIR      39  25  57 CALM      30.45R
SAGINAW HB     FAIR      34  32  93 CALM      30.42S
$$
MIZ043>046-050>051-056>058-064>065-071>073-077>080-221300-
SOUTHWEST LOWER MICHIGAN

CITY           SKY/WX    TMP DP  RH WIND       PRES   REMARKS
BATTLE CREEK   FAIR      40  30  67 CALM      30.39R
6HR MIN TEMP:  33; 6HR MAX TEMP:  47;

BENTON HARBOR  FAIR      39  31  72 E3        30.37S
6HR MIN TEMP:  36; 6HR MAX TEMP:  42;

BIG RAPIDS     FAIR      30  22  72 CALM      30.41R
6HR MIN TEMP:  27; 6HR MAX TEMP:  33;

COLDWATER      FAIR      43  21  42 CALM      30.38R
6HR MIN TEMP:  38; 6HR MAX TEMP:  46;

FREMONT        FAIR      36  21  53 E6        30.40S WCI  31
6HR MIN TEMP:  28; 6HR MAX TEMP:  36;

HOLLAND        FAIR      37  29  72 E5        30.40R WCI  33
6HR MIN TEMP:  33; 6HR MAX TEMP:  38;

GRAND RAPIDS   FAIR      35  28  75 E3        30.40R
6HR MIN TEMP:  32; 6HR MAX TEMP:  40;

IONIA          FAIR      35  30  83 CALM      30.40S
6HR MIN TEMP:  32; 6HR MAX TEMP:  42;

KALAMAZOO      FAIR      42  28  57 NE5       30.39R
6HR MIN TEMP:  40; 6HR MAX TEMP:  50;

LUDINGTON      FAIR      29  26  89 CALM      30.40S
6HR MIN TEMP:  24; 6HR MAX TEMP:  29;

MARSHALL       FAIR      38  25  59 CALM      30.39R
6HR MIN TEMP:  31; 6HR MAX TEMP:  43;

MOUNT PLEASANT FAIR      35  32  91 CALM      30.42R
6HR MIN TEMP:  32; 6HR MAX TEMP:  39;

MUSKEGON       FAIR      33  25  72 E5        30.40R WCI  29
6HR MIN TEMP:  29; 6HR MAX TEMP:  34;

SOUTH HAVEN    FAIR      41  30  64 E3        30.38R
$$
MIZ016>042-221300-
NORTHERN LOWER MICHIGAN

CITY           SKY/WX    TMP DP  RH WIND       PRES   REMARKS
ALPENA         FAIR      27  25  92 CALM      30.44R
6HR MIN TEMP:  23; 6HR MAX TEMP:  30;

BEAVER ISLAND  FAIR      30  26  84 CALM      30.42R
6HR MIN TEMP:  27; 6HR MAX TEMP:  30;

BELLAIRE       FAIR      26  23  89 CALM      30.44R
6HR MIN TEMP:  24; 6HR MAX TEMP:  28;

CADILLAC       FAIR      29  23  77 CALM      30.39R
CHARLEVOIX     FAIR      31  23  74 CALM      30.45R
6HR MIN TEMP:  28; 6HR MAX TEMP:  32;

FRANKFORT      FAIR      29  23  78 CALM      30.41R
GAYLORD        FAIR      29  23  78 CALM      30.41R
6HR MIN TEMP:  23; 6HR MAX TEMP:  31;

GRAYLING       FAIR      25  21  86 CALM      30.41R
6HR MIN TEMP:  20; 6HR MAX TEMP:  27;

HARBOR SPRINGS FAIR      30  24  77 E7        30.43R WCI  23
HOUGHTON LAKE  FAIR      30  28  92 CALM      30.42R
6HR MIN TEMP:  26; 6HR MAX TEMP:  30;

MANISTEE       FAIR      30  26  85 CALM      30.42R
OSCODA         FAIR      30  23  75 CALM      30.43R
6HR MIN TEMP:  22; 6HR MAX TEMP:  30;

PELLSTON       FAIR      27  22  81 CALM      30.44R
6HR MIN TEMP:  21; 6HR MAX TEMP:  28;

ROGERS CITY    FAIR      30  24  78 CALM      30.44R
TRAVERSE CITY  FAIR      30  25  81 CALM      30.42R
6HR MIN TEMP:  27; 6HR MAX TEMP:  31;

$$
MIZ007>008-015-221300-
EASTERN UPPER MICHIGAN

CITY           SKY/WX    TMP DP  RH WIND       PRES   REMARKS
KINROSS        FAIR      31  21  66 CALM      30.42R
6HR MIN TEMP:  26; 6HR MAX TEMP:  37;

MACKINAC ISLAN FAIR      34  15  46 CALM      30.42R
6HR MIN TEMP:  31; 6HR MAX TEMP:  36;

NEWBERRY       FAIR      28  24  84 CALM      30.41R
6HR MIN TEMP:  24; 6HR MAX TEMP:  31;

S. S. MARIE    FAIR      34  23  64 CALM      30.42R
6HR MIN TEMP:  29; 6HR MAX TEMP:  35;

MUNISING         N/A     34  26  72 SW7       30.39R WCI  28
6HR MIN TEMP:  26; 6HR MAX TEMP:  34;

$$
MIZ004>006-011>014-085-221300-
CENTRAL UPPER MICHIGAN

CITY           SKY/WX    TMP DP  RH WIND       PRES   REMARKS
MANISTIQUE     FAIR      28  27  94 CALM      30.41R
6HR MIN TEMP:  23; 6HR MAX TEMP:  28;

ESCANABA       FAIR      29  27  92 CALM      30.41R
6HR MIN TEMP:  22; 6HR MAX TEMP:  29;

MENOMINEE      FAIR      32  26  78 CALM      30.41R
6HR MIN TEMP:  27; 6HR MAX TEMP:  35;

SAWYER-GWINN   SUNNY     25  18  74 CALM      30.38R
$$
MIZ001>003-009>011-084-221300-
WESTERN UPPER MICHIGAN

CITY           SKY/WX    TMP DP  RH WIND       PRES   REMARKS
IRON MOUNTAIN  FAIR      30  22  72 CALM      30.37R
6HR MIN TEMP:  25; 6HR MAX TEMP:  32;

HOUGHTON       FAIR      36  14  40 NE3       30.37R
6HR MIN TEMP:  24; 6HR MAX TEMP:  41;

COPPER HARBOR    N/A     35  17  47 W5        30.37S WCI  31
6HR MIN TEMP:  29; 6HR MAX TEMP:  41;

IRONWOOD       FAIR      27  23  85 CALM      30.38R
6HR MIN TEMP:  21; 6HR MAX TEMP:  29;

$$

ABBREVIATIONS USED IN REMARKS
   TC - TEMPERATURE IN CELSIUS
  WCI - WIND CHILL INDEX
   HX - HEAT INDEX
  VSB - VISIBILITY




USA.gov is the U.S. government's official web portal to all federal, state and local government web resources and services.